Current weather by "City, St" or "zip code"  
 

Current Conditions: Providence, Theodore Francis Green State Airport, RI

Fog/Mist


62.0 F

Last Updated on May 21 2022, 3:51 am EDT
Humidity: 93%
Wind Speed: S 5.8 mph
Barometer 29.98 in
Dewpoint: 60.1 F
Visibility: 3.00 mi
Precip: --
Heat Index: NA
Wind Chill: 62 F
Current conditions at:

Providence, Theodore Francis Green State Airport, RI (KPVD)

Lat: 41.72249 Lon: 71.43247

Local Radar Image active severe weather and emergency alerts image image weather storm and storm spotter reports image weather observation monitoring service image
Local
Radar
Active
Alerts
Storm Reports Obs
Monitoring

Sign-up For Email & Text Message Weather Alert Notification Services



Advertise Here

Observation History for Providence, Theodore Francis Green State Airport, RI


Time Wind
(mph)
Vis
(mi)
Weather Precip (in) Temperature (F) Relative
Humidity
Wind
Chill
(F)
Heat
Index
(F)
Pressure
Air Dwpt altimeter
(in)
sea level
(mb)
Rmks
3:51 am EDT S 5.8 3.00 Fog/Mist -- 62.0 60.1 93% 62 NA 29.98 1015.0
2:51 am EDT S 9.2 7.00 Overcast -- 62.0 60.1 93% 61 NA 29.99 1015.4
1:51 am EDT SE 3.5 10.00 Overcast 00.04 61.0 59.0 93% NA NA 30.01 1016.1
12:51 am EDT E 3.5 4.00 Heavy Rain Fog/Mist 00.05 60.0 57.9 93% NA NA 30.01 1016.4
11:51 pm EDT E 8.1 5.00 Rain Fog/Mist 00.04 59.0 57.0 93% 58 NA 30.03 1017.0
10:51 pm EDT SE 6.9 10.00 Light Rain -- 59.0 57.0 93% 58 NA 30.03 1016.9
9:51 pm EDT S 8.1 10.00 Light Rain Trace 59.0 55.0 87% 58 NA 30.05 1017.6
8:51 pm EDT S 10.4 10.00 Overcast -- 60.0 54.0 80% 58 NA 30.05 1017.7
7:51 pm EDT S 8.1 10.00 Overcast -- 61.0 54.0 78% 60 NA 30.02 1016.5
5:51 pm EDT S 13.8 10.00 Overcast -- 63.0 54.0 73% 61 NA 30.03 1017.0
4:51 pm EDT S 11.5 10.00 Mostly Cloudy -- 65.0 55.0 70% NA NA 30.02 1016.7
3:51 pm EDT SE 12.7 10.00 Mostly Cloudy -- 64.0 54.0 70% NA NA 30.02 1016.7
2:51 pm EDT SE 13.8 10.00 Mostly Cloudy -- 65.0 53.1 66% NA NA 30.03 1016.9
11:51 am EDT S 12.7 10.00 Mostly Cloudy -- 67.0 52.0 59% NA NA 30.04 1017.2
10:51 am EDT SE 6.9 10.00 Mostly Cloudy -- 65.0 52.0 63% NA NA 30.03 1016.8
9:51 am EDT NE 4.6 10.00 Mostly Cloudy -- 63.0 54.0 73% 64 NA 30.02 1016.7
8:51 am EDT N 0.0 10.00 Partly Cloudy -- 62.0 51.1 67% NA NA 30.01 1016.2
7:51 am EDT N 0.0 10.00 A Few Clouds -- 60.0 52.0 75% NA NA 29.99 1015.5
6:51 am EDT SW 3.5 10.00 A Few Clouds -- 54.0 51.1 90% NA NA 29.95 1014.3
5:51 am EDT N 0.0 10.00 A Few Clouds -- 50.0 48.9 96% NA NA 29.91 1012.8
4:51 am EDT SW 5.8 10.00 Fair -- 51.0 48.9 92% 49 NA 29.88 1011.9

Regional Weather Observation


Providence, Theodore Francis Green State Airport, RI (KPVD)

Fog/Mist
62.0 F

Taunton, Taunton Municipal Airport, MA (KTAN)

Overcast
62.0 F

Worcester, Worcester Regional Airport, MA (KORH)

Fog
59.0 F

Newport, Newport State Airport, RI (KUUU)

Fog/Mist
60.0 F

Norwood, Norwood Memorial Airport, MA (KOWD)

Fog/Mist
62.0 F

Westerly, Westerly State Airport, RI (KWST)

Fog/Mist
61.0 F

Advertise Here


Advertise Here